Location: Beadle
(51.4667°N, 109.0000°W)
Time: 10:47:44
(UTC+00:00)

deb Explorer IX - Pass Details

Date: 30 May 2022
Orbit: 535 x 1068 km, 38.8° (Epoch: 04 July)

Event Time Altitude Azimuth Distance (km) Brightness Sun altitude
Rises 16:49:48 0° 217° (SW) 3,846 ? 49.4°
Reaches altitude 10° 16:53:24 10° 201° (SSW) 2,879 ? 49.9°
Maximum altitude 16:58:05 19° 159° (SSE) 2,234 ? 50.5°
Drops below altitude 10° 17:02:34 10° 117° (ESE) 2,748 ? 51.0°
Sets 17:05:54 0° 100° (E) 3,614 ? 51.4°
